COSMOS 972

Satellite information

Favourite Embed

Satellite Type and Status

PAYLOADIN ORBIT

Key statistics

Satellite COSMOS 972 at a glance.

Uptime

17518

Days in orbit

Revolutions

≈ 13.9

Per day

Orbit

LEO

Low Earth Orbit

Inclination

75.8

Latest

Satellite identification and parameters

Extended collection of information and parameters for COSMOS 972.

Object identification

Identified? True

Debris? False

Object name: COSMOS 972

International designator: 1977-123A

Object number (NORAD): 10539

Object ID (CCSDS): 10539

Country: COMMONWEALTH OF INDEPENDENT STATES (CIS)

Current information (Y/N): Y

RCS size: LARGE

Orbital parameters

Period: 103.661 minutes

Inclination: 75.8357 deg

SMA: 7309.779 km

Apoapsis: 1152.739 km

Periapsis: 710.55 km

RAAN: 28.7216 deg

Eccentricy: 0.03024639

Argument of periapsis: 245.0061 deg

Mean anomaly: 111.9386 deg

Mean motion: 13.89141167 rev/day

Mean motion (dot): 0.00000117 rev/day2

B* drag term: 0.000075035123 1/REarth

Two-line elements (TLE)

Creation date: Dec. 12, 2025, 10:14 a.m.

Reference frame: TEME

Reference center: EARTH

Epoch: Dec. 12, 2025, 6:31 a.m. UTC

TLE line 0: 0 COSMOS 972

TLE line 1: 1 10539U 77123A 25346.27208012 .00000117 00000-0 75035-4 0 9993

TLE line 2: 2 10539 75.8357 28.7216 0302464 245.0061 111.9386 13.89141167430094

Live tracking on map

Real-time ground track for satellite COSMOS 972.

In-orbit conjunctions

A list of the most updated potential collisions computed for object COSMOS 972.

Target Orbit TCA Probability of collision Miss distance Type
CZ-6A DEB LEO 2025-10-04 16:52:03 0.0001346292 172.0 (m) DEBRIS
FENGYUN 1C DEB SSO 2025-09-05 13:26:54 0.0001187066 470.0 (m) DEBRIS
TITAN 3C TRANSTAGE DEB MEO 2025-05-29 09:40:25 0.0001253908 542.0 (m) DEBRIS
NOAA 16 DEB SSO 2025-04-04 00:19:06 0.0001498082 253.0 (m) DEBRIS
FENGYUN 1C DEB SSO 2025-02-02 13:07:20 0.0001243244 590.0 (m) DEBRIS

Associated space launch

Dynamic simulator of the Tselina-D ELINT satellite

COSMOS 972 was lifted into orbit during the mission ‘Tsiklon-3 | EPN 03.0380 3’, on board a Tsiklon-3 space rocket.

The launch took place on Dec. 27, 1977, 8 a.m. from 32/2.

For more information about the launch, click the button.

Launch to space Tsiklon-3 | EPN 03.0380 3
Tsiklon-3 | EPN 03.0380 3

Agency: N/A

Status: Launch Successful

Launch date: Dec. 27, 1977, 8 a.m. UTC

Rocket: Tsiklon-3

Launch pad: 32/2

Location: Plesetsk Cosmodrome, Russian Federation

...

Latest news about this satellite

There are no fresh news available about this satellite. Check back as we update our databases every day.


Newsletter sign-up

Weekly statistics, charts and insights to help you stay on top of the space industry.